Location: Deurze
(52.9838°N, 6.6090°E)
Time: 18:57:15
(UTC+00:00)

Cosmos 1241 Rocket - Pass Details

Date: 11 March 2026
Orbit: 941 x 1005 km, 65.8° (Epoch: 20 April)

Event Time Altitude Azimuth Distance (km) Brightness Sun altitude
Rises 19:11:53 0° 205° (SSW) 3,610 7.6 -15.9°
Reaches altitude 10° 19:14:27 10° 202° (SSW) 2,662 6.9 -16.3°
Maximum altitude 19:20:31 60° 124° (SE) 1,070 4.4 -17.2°
Drops below altitude 10° 19:26:36 10° 46° (NE) 2,666 6.5 -18.0°
Sets 19:29:11 0° 43° (NE) 3,616 7.3 -18.4°
